Terminal Aerodrome Forecast
Issued by NWS North Platte, NE

Home | Current Version | Previous Version | Text Only | Print | Product List | Glossary On
Versions: 1 2 3 4 5 6 7 8 9 10 11 12 13 14 15 16 17 18 19 20 21
000
FTUS43 KLBF 281000 AAA
TAFLBF
TAF AMD
KLBF 281016Z 2810/2906 36006KT P6SM SCT070 BKN200
      TEMPO 2811/2813 BKN009
     FM281500 36007KT P6SM BKN070=

USA.gov is the U.S. government's official web portal to all federal, state and local government web resources and services.